West Palm Beach, FL

11:40 PM EST on January 23, 2018 (GMT -0500)
Palm Beach International

Weather History for KPBI - August, 2013

Change the Weather History Date:

Friday, August 16, 2013

  Actual Average Record
Temperature  
Mean Temperature 85 °F 83 °F  
Max Temperature 92 °F 90 °F 97 °F (1948)
Min Temperature 78 °F 76 °F 69 °F (1927)
Degree Days  
Heating Degree Days 0 0  
Month to date heating degree days 0 0  
Since 1 June heating degree days 0 0  
Since 1 July heating degree days 0 0  
Cooling Degree Days 20 18  
Month to date cooling degree days 326 288  
Year to date cooling degree days 2576 2436  
Since 1 June cooling degree days 1391 1327  
Growing Degree Days 34 (Base 50)    
Moisture  
Dew Point 74 °F    
Average Humidity 65    
Maximum Humidity 74    
Minimum Humidity 56    
Precipitation  
Precipitation 0.02 in 0.27 in 2.37 in (2014)
Month to date precipitation 2.76 3.91  
Year to date precipitation 46.28 36.68  
Snow  
Snow 0.00 in - - ()
Month to date snowfall 0.0  
Since 1 June snowfall 0.0  
Since 1 July snowfall 0.0  
Snow Depth 0.00 in    
Sea Level Pressure  
Sea Level Pressure 30.03 in    
Wind  
Wind Speed 7 mph (ESE)    
Max Wind Speed 17 mph    
Max Gust Speed 22 mph    
Visibility 10 miles    
Events Rain , Thunderstorm    
T = Trace of Precipitation, MM = Missing Value Source: NWS Daily Summary

Daily Weather History Graph

Daily Weather History Graph

Search for Another Location

Airport or City:

Trip Planner

Search our weather history database for the weather conditions in past years. The results will help you decide how hot, cold, wet, or windy it might be!

Date:

Astronomy

Aug. 16, 2013 Rise Set
Actual Time 6:52 AM EDT 7:55 PM EDT
Civil Twilight 6:28 AM EDT 8:20 PM EDT
Nautical Twilight 5:59 AM EDT 8:48 PM EDT
Astronomical Twilight 5:30 AM EDT 9:18 PM EDT
Moon 4:02 PM EDT (8/16) 2:04 AM EDT (8/16)
Length of Visible Light 13h 51m
Length of Day
13h 03m
Waxing Gibbous, 74% of the Moon is Illuminated
Aug 16
Waxing Gibbous
Aug 20
Full
Aug 28
Last Quarter
Sep 5
New
Sep 12
First Quarter

Hourly Weather History & Observations

Time (EDT) Temp. Heat Index Dew Point Humidity Pressure Visibility Wind Dir Wind Speed Gust Speed Precip Events Conditions
1:53 AM 79.0 °F - 70.0 °F 74% 30.03 in 10.0 mi NNE 6.9 mph - 0.00 in   Mostly Cloudy
2:53 AM 81.0 °F 84.9 °F 71.1 °F 72% 30.01 in 10.0 mi ESE 3.5 mph - N/A   Mostly Cloudy
3:53 AM 80.1 °F 83.6 °F 71.1 °F 74% 30.00 in 10.0 mi Calm Calm - N/A   Mostly Cloudy
4:53 AM 82.0 °F 87.4 °F 73.0 °F 74% 30.00 in 10.0 mi ENE 3.5 mph - N/A   Mostly Cloudy
5:53 AM 82.9 °F 88.8 °F 73.0 °F 72% 30.01 in 10.0 mi East 3.5 mph - N/A   Mostly Cloudy
6:53 AM 82.9 °F 89.4 °F 73.9 °F 74% 30.03 in 10.0 mi Calm Calm - N/A   Mostly Cloudy
7:53 AM 84.0 °F 91.2 °F 73.9 °F 72% 30.05 in 10.0 mi Calm Calm - N/A   Mostly Cloudy
8:53 AM 84.9 °F 93.3 °F 75.0 °F 72% 30.05 in 10.0 mi ESE 5.8 mph - N/A   Mostly Cloudy
9:19 AM 86.0 °F 95.1 °F 75.2 °F 70% 30.05 in 10.0 mi ESE 5.8 mph - N/A   Mostly Cloudy
9:53 AM 87.1 °F 96.3 °F 75.0 °F 67% 30.05 in 10.0 mi ESE 8.1 mph - N/A   Mostly Cloudy
10:02 AM 86.0 °F 95.1 °F 75.2 °F 70% 30.05 in 10.0 mi ESE 6.9 mph - N/A Thunderstorm Thunderstorm
10:24 AM 86.0 °F 95.1 °F 75.2 °F 70% 30.05 in 10.0 mi ESE 6.9 mph - 0.00 in Rain , Thunderstorm Light Thunderstorms and Rain
10:37 AM 82.4 °F 89.5 °F 75.2 °F 79% 30.06 in 10.0 mi WSW 4.6 mph - 0.01 in Rain Light Rain
10:53 AM 84.9 °F 94.1 °F 75.9 °F 74% 30.06 in 10.0 mi Variable 4.6 mph - 0.02 in   Mostly Cloudy
11:53 AM 89.1 °F 99.1 °F 75.0 °F 63% 30.05 in 10.0 mi ESE 8.1 mph - N/A   Mostly Cloudy
12:53 PM 90.0 °F 97.9 °F 73.0 °F 57% 30.04 in 10.0 mi ESE 11.5 mph - N/A   Mostly Cloudy
1:53 PM 91.0 °F 100.4 °F 73.9 °F 57% 30.03 in 10.0 mi SE 10.4 mph - N/A   Mostly Cloudy
2:53 PM 91.9 °F 100.7 °F 73.0 °F 54% 30.01 in 10.0 mi East 12.7 mph - N/A   Mostly Cloudy
3:53 PM 91.9 °F 100.7 °F 73.0 °F 54% 29.99 in 10.0 mi SE 12.7 mph - N/A   Scattered Clouds
4:53 PM 90.0 °F 97.9 °F 73.0 °F 57% 29.99 in 10.0 mi SE 13.8 mph - N/A   Scattered Clouds
5:53 PM 90.0 °F 99.0 °F 73.9 °F 59% 29.99 in 10.0 mi SE 12.7 mph - N/A   Scattered Clouds
6:53 PM 88.0 °F 97.5 °F 75.0 °F 65% 30.00 in 10.0 mi SE 10.4 mph - N/A   Scattered Clouds
7:53 PM 86.0 °F 95.1 °F 75.0 °F 70% 30.01 in 10.0 mi SE 8.1 mph - N/A   Scattered Clouds
8:53 PM 86.0 °F 95.1 °F 75.0 °F 70% 30.04 in 10.0 mi SE 9.2 mph - N/A   Scattered Clouds
9:53 PM 84.9 °F 92.1 °F 73.9 °F 69% 30.06 in 10.0 mi SE 10.4 mph - N/A   Scattered Clouds
10:53 PM 84.9 °F 92.1 °F 73.9 °F 69% 30.06 in 10.0 mi SE 6.9 mph - N/A   Scattered Clouds
11:53 PM 84.9 °F 94.1 °F 75.9 °F 74% 30.05 in 10.0 mi SE 5.8 mph - N/A   Scattered Clouds